Time,TemperatureF,DewpointF,PressureIn,WindDirection,WindDirectionDegrees,WindSpeedMPH,WindSpeedGustMPH,Humidity,HourlyPrecipIn,Conditions,Clouds,dailyrainin,SoftwareType,DateUTC
2013-01-07 00:02:00,24.0,15.0,-100.00,SW,225,17.0,21.0,69,-99.99,,,0.00,,2013-01-07 07:02:00,
2013-01-07 00:12:00,24.0,15.0,-100.00,SW,225,17.0,21.0,70,-99.99,,,0.00,,2013-01-07 07:12:00,
2013-01-07 00:22:00,24.0,15.0,-100.00,SW,225,17.0,21.0,70,-99.99,,,0.00,,2013-01-07 07:22:00,
2013-01-07 00:32:00,24.0,15.0,-100.00,SW,225,17.0,21.0,70,-99.99,,,0.00,,2013-01-07 07:32:00,
2013-01-07 00:53:00,23.0,14.0,-100.00,SW,230,16.0,21.0,68,-99.99,,,-99.99,,2013-01-07 07:53:00,
2013-01-07 01:02:00,23.0,14.0,-100.00,SW,230,16.0,21.0,68,-99.99,,,-99.99,,2013-01-07 08:02:00,
2013-01-07 01:12:00,23.0,15.0,-100.00,SW,225,16.0,21.0,69,-99.99,,,0.00,,2013-01-07 08:12:00,
2013-01-07 01:22:00,23.0,15.0,-100.00,SW,225,16.0,21.0,69,-99.99,,,0.00,,2013-01-07 08:22:00,
2013-01-07 01:32:00,23.0,15.0,-100.00,SW,225,16.0,21.0,69,-99.99,,,0.00,,2013-01-07 08:32:00,
2013-01-07 01:42:00,23.0,15.0,-100.00,SW,225,16.0,21.0,69,-99.99,,,0.00,,2013-01-07 08:42:00,
2013-01-07 01:52:00,23.0,15.0,-100.00,SW,225,13.0,17.0,69,-99.99,,,0.00,,2013-01-07 08:52:00,
2013-01-07 02:02:00,23.0,15.0,-100.00,SW,225,13.0,17.0,69,-99.99,,,0.00,,2013-01-07 09:02:00,
2013-01-07 02:12:00,22.0,14.0,-100.00,SW,230,14.0,16.0,70,-99.99,,,0.00,,2013-01-07 09:12:00,
2013-01-07 02:22:00,22.0,14.0,-100.00,SW,230,14.0,16.0,70,-99.99,,,0.00,,2013-01-07 09:22:00,
2013-01-07 02:32:00,21.0,13.0,-100.00,SW,230,10.0,13.0,71,-99.99,,,0.00,,2013-01-07 09:32:00,
2013-01-07 02:42:00,21.0,13.0,-100.00,SW,230,10.0,13.0,71,-99.99,,,0.00,,2013-01-07 09:42:00,
2013-01-07 02:52:00,22.0,13.0,-100.00,SW,235,12.0,16.0,66,-99.99,,,0.00,,2013-01-07 09:52:00,
2013-01-07 03:02:00,22.0,13.0,-100.00,SW,235,12.0,16.0,66,-99.99,,,0.00,,2013-01-07 10:02:00,
2013-01-07 03:12:00,23.0,13.0,-100.00,SW,235,13.0,16.0,65,-99.99,,,0.00,,2013-01-07 10:12:00,
2013-01-07 03:22:00,23.0,13.0,-100.00,SW,235,13.0,16.0,65,-99.99,,,0.00,,2013-01-07 10:22:00,
2013-01-07 03:32:00,23.0,13.0,-100.00,SW,235,11.0,17.0,66,-99.99,,,-99.99,,2013-01-07 10:32:00,
2013-01-07 03:42:00,23.0,13.0,-100.00,SW,235,11.0,17.0,66,-99.99,,,-99.99,,2013-01-07 10:42:00,
2013-01-07 03:52:00,23.0,13.0,-100.00,SW,230,9.0,15.0,67,-99.99,,,0.00,,2013-01-07 10:52:00,
2013-01-07 04:02:00,23.0,13.0,-100.00,SW,230,9.0,15.0,67,-99.99,,,0.00,,2013-01-07 11:02:00,
2013-01-07 04:12:00,23.0,14.0,-100.00,SW,225,10.0,14.0,67,-99.99,,,0.00,,2013-01-07 11:12:00,
2013-01-07 04:22:00,23.0,14.0,-100.00,SW,225,10.0,14.0,67,-99.99,,,0.00,,2013-01-07 11:22:00,
2013-01-07 04:32:00,24.0,15.0,-100.00,SSW,210,15.0,17.0,69,-99.99,,,0.00,,2013-01-07 11:32:00,
2013-01-07 04:43:00,24.0,15.0,-100.00,SSW,210,15.0,17.0,69,-99.99,,,0.00,,2013-01-07 11:43:00,
2013-01-07 04:52:00,23.0,14.0,-100.00,SW,220,12.0,19.0,67,-99.99,,,-99.99,,2013-01-07 11:52:00,
2013-01-07 05:02:00,23.0,14.0,-100.00,SW,220,12.0,19.0,67,-99.99,,,-99.99,,2013-01-07 12:02:00,
2013-01-07 05:12:00,23.0,12.0,-100.00,WSW,255,9.0,11.0,62,-99.99,,,0.00,,2013-01-07 12:12:00,
2013-01-07 05:22:00,23.0,12.0,-100.00,WSW,255,9.0,11.0,62,-99.99,,,0.00,,2013-01-07 12:22:00,
2013-01-07 05:32:00,23.0,11.0,-100.00,WSW,240,10.0,16.0,58,-99.99,,,0.00,,2013-01-07 12:32:00,
2013-01-07 05:42:00,23.0,11.0,-100.00,WSW,240,10.0,16.0,58,-99.99,,,0.00,,2013-01-07 12:42:00,
2013-01-07 05:52:00,23.0,11.0,-100.00,West,265,11.0,14.0,60,-99.99,,,0.00,,2013-01-07 12:52:00,
2013-01-07 06:02:00,23.0,11.0,-100.00,West,265,11.0,14.0,60,-99.99,,,0.00,,2013-01-07 13:02:00,
2013-01-07 06:12:00,23.0,12.0,-100.00,WSW,250,11.0,12.0,61,-99.99,,,0.00,,2013-01-07 13:12:00,
2013-01-07 06:22:00,23.0,12.0,-100.00,WSW,250,11.0,12.0,61,-99.99,,,0.00,,2013-01-07 13:22:00,
2013-01-07 06:33:00,23.0,12.0,-100.00,WSW,255,11.0,14.0,61,-99.99,,,0.00,,2013-01-07 13:33:00,
2013-01-07 06:42:00,23.0,12.0,-100.00,WSW,255,11.0,14.0,61,-99.99,,,0.00,,2013-01-07 13:42:00,
2013-01-07 06:52:00,23.0,13.0,-100.00,NW,310,6.0,9.0,65,-99.99,,,0.00,,2013-01-07 13:52:00,
2013-01-07 07:03:00,23.0,13.0,-100.00,NW,310,6.0,9.0,65,-99.99,,,0.00,,2013-01-07 14:03:00,
2013-01-07 07:12:00,23.0,13.0,-100.00,NW,310,4.0,7.0,67,-99.99,,,0.00,,2013-01-07 14:12:00,
2013-01-07 07:22:00,23.0,13.0,-100.00,NW,310,4.0,7.0,67,-99.99,,,0.00,,2013-01-07 14:22:00,
2013-01-07 07:33:00,23.0,13.0,-100.00,NW,310,4.0,7.0,67,-99.99,,,0.00,,2013-01-07 14:33:00,
2013-01-07 07:53:00,23.0,14.0,-100.00,WNW,295,6.0,8.0,67,-99.99,,,0.00,,2013-01-07 14:53:00,
2013-01-07 08:03:00,23.0,14.0,-100.00,WNW,295,6.0,8.0,67,-99.99,,,0.00,,2013-01-07 15:03:00,
2013-01-07 08:12:00,25.0,14.0,-100.00,West,260,9.0,12.0,62,-99.99,,,0.00,,2013-01-07 15:12:00,
2013-01-07 08:22:00,25.0,14.0,-100.00,West,260,9.0,12.0,62,-99.99,,,0.00,,2013-01-07 15:22:00,
2013-01-07 08:33:00,25.0,13.0,-100.00,WSW,255,8.0,12.0,61,-99.99,,,0.00,,2013-01-07 15:33:00,
2013-01-07 08:41:00,25.0,14.0,-100.00,WSW,245,12.0,15.0,61,-99.99,,,0.00,,2013-01-07 15:41:00,
2013-01-07 08:42:00,25.0,13.0,-100.00,WSW,255,8.0,12.0,61,-99.99,,,0.00,,2013-01-07 15:42:00,
2013-01-07 08:53:00,25.0,13.0,-100.00,WSW,240,8.0,9.0,60,-99.99,,,0.00,,2013-01-07 15:53:00,
2013-01-07 09:02:00,25.0,13.0,-100.00,WSW,240,8.0,9.0,60,-99.99,,,0.00,,2013-01-07 16:02:00,
2013-01-07 09:12:00,25.0,14.0,-100.00,WSW,245,12.0,15.0,61,-99.99,,,0.00,,2013-01-07 16:12:00,
2013-01-07 09:22:00,25.0,14.0,-100.00,WSW,245,12.0,15.0,61,-99.99,,,0.00,,2013-01-07 16:22:00,
2013-01-07 09:33:00,25.0,14.0,-100.00,WSW,245,12.0,15.0,61,-99.99,,,0.00,,2013-01-07 16:33:00,
2013-01-07 09:53:00,26.0,16.0,-100.00,WSW,240,13.0,19.0,64,-99.99,,,0.00,,2013-01-07 16:53:00,
2013-01-07 10:02:00,26.0,16.0,-100.00,WSW,240,13.0,19.0,64,-99.99,,,0.00,,2013-01-07 17:02:00,
2013-01-07 10:12:00,27.0,16.0,-100.00,SW,230,17.0,21.0,62,-99.99,,,0.00,,2013-01-07 17:12:00,
2013-01-07 10:22:00,27.0,16.0,-100.00,SW,230,17.0,21.0,62,-99.99,,,0.00,,2013-01-07 17:22:00,
2013-01-07 10:32:00,28.0,18.0,-100.00,SW,235,16.0,22.0,66,-99.99,,,0.00,,2013-01-07 17:32:00,
2013-01-07 10:42:00,28.0,18.0,-100.00,SW,235,16.0,22.0,66,-99.99,,,0.00,,2013-01-07 17:42:00,
2013-01-07 10:52:00,28.0,18.0,-100.00,SW,235,16.0,22.0,67,-99.99,,,-99.99,,2013-01-07 17:52:00,
2013-01-07 11:02:00,28.0,18.0,-100.00,SW,235,16.0,22.0,67,-99.99,,,-99.99,,2013-01-07 18:02:00,
2013-01-07 11:12:00,28.0,19.0,-100.00,SW,230,19.0,24.0,66,-99.99,,,0.00,,2013-01-07 18:12:00,
2013-01-07 11:23:00,28.0,19.0,-100.00,SW,230,19.0,24.0,66,-99.99,,,0.00,,2013-01-07 18:23:00,
2013-01-07 11:32:00,28.0,19.0,-100.00,SW,220,22.0,24.0,68,-99.99,,,0.00,,2013-01-07 18:32:00,
2013-01-07 11:41:00,29.0,19.0,-100.00,SW,225,19.0,26.0,68,-99.99,,,0.00,,2013-01-07 18:41:00,
2013-01-07 11:42:00,28.0,19.0,-100.00,SW,220,22.0,24.0,68,-99.99,,,0.00,,2013-01-07 18:42:00,
2013-01-07 11:52:00,29.0,19.0,-100.00,SW,230,18.0,23.0,66,-99.99,,,0.00,,2013-01-07 18:52:00,
2013-01-07 12:03:00,29.0,19.0,-100.00,SW,230,18.0,23.0,66,-99.99,,,0.00,,2013-01-07 19:03:00,
2013-01-07 12:12:00,29.0,19.0,-100.00,SW,225,19.0,26.0,68,-99.99,,,0.00,,2013-01-07 19:12:00,
2013-01-07 12:22:00,29.0,19.0,-100.00,SW,225,19.0,26.0,68,-99.99,,,0.00,,2013-01-07 19:22:00,
2013-01-07 12:33:00,29.0,19.0,-100.00,SW,225,19.0,26.0,68,-99.99,,,0.00,,2013-01-07 19:33:00,
2013-01-07 12:52:00,29.0,19.0,-100.00,SW,225,19.0,22.0,66,-99.99,,,0.00,,2013-01-07 19:52:00,
2013-01-07 13:02:00,29.0,19.0,-100.00,SW,225,19.0,22.0,66,-99.99,,,0.00,,2013-01-07 20:02:00,
2013-01-07 13:12:00,29.0,20.0,-100.00,SW,220,14.0,21.0,70,-99.99,,,-99.99,,2013-01-07 20:12:00,
2013-01-07 13:22:00,29.0,20.0,-100.00,SW,220,14.0,21.0,70,-99.99,,,-99.99,,2013-01-07 20:22:00,
2013-01-07 13:33:00,29.0,20.0,-100.00,SW,220,14.0,21.0,70,-99.99,,,-99.99,,2013-01-07 20:33:00,
2013-01-07 13:42:00,29.0,20.0,-100.00,SW,220,14.0,21.0,70,-99.99,,,-99.99,,2013-01-07 20:42:00,
2013-01-07 13:52:00,29.0,20.0,-100.00,SW,230,11.0,22.0,68,-99.99,,,0.00,,2013-01-07 20:52:00,
2013-01-07 14:02:00,29.0,20.0,-100.00,SW,230,11.0,22.0,68,-99.99,,,0.00,,2013-01-07 21:02:00,
2013-01-07 14:12:00,29.0,21.0,-100.00,SW,220,14.0,18.0,71,-99.99,,,0.00,,2013-01-07 21:12:00,
2013-01-07 14:22:00,29.0,21.0,-100.00,SW,220,14.0,18.0,71,-99.99,,,0.00,,2013-01-07 21:22:00,
2013-01-07 14:32:00,29.0,21.0,-100.00,SW,220,14.0,18.0,71,-99.99,,,0.00,,2013-01-07 21:32:00,
2013-01-07 14:42:00,29.0,21.0,-100.00,SW,235,11.0,16.0,71,-99.99,,,0.00,,2013-01-07 21:42:00,
2013-01-07 14:52:00,29.0,21.0,-100.00,SW,230,11.0,14.0,73,-99.99,,,0.00,,2013-01-07 21:52:00,
2013-01-07 15:02:00,29.0,21.0,-100.00,SW,230,11.0,14.0,73,-99.99,,,0.00,,2013-01-07 22:02:00,
2013-01-07 15:12:00,29.0,21.0,-100.00,SW,235,11.0,16.0,71,-99.99,,,0.00,,2013-01-07 22:12:00,
2013-01-07 15:22:00,29.0,21.0,-100.00,SW,235,11.0,16.0,71,-99.99,,,0.00,,2013-01-07 22:22:00,
2013-01-07 15:33:00,29.0,21.0,-100.00,SW,235,11.0,16.0,71,-99.99,,,0.00,,2013-01-07 22:33:00,
2013-01-07 15:42:00,29.0,22.0,-100.00,West,260,5.0,12.0,74,-99.99,,,0.00,,2013-01-07 22:42:00,
2013-01-07 15:52:00,29.0,21.0,-100.00,WSW,245,4.0,13.0,72,-99.99,,,0.00,,2013-01-07 22:52:00,
2013-01-07 16:02:00,29.0,21.0,-100.00,WSW,245,4.0,13.0,72,-99.99,,,0.00,,2013-01-07 23:02:00,
2013-01-07 16:12:00,29.0,22.0,-100.00,West,260,5.0,12.0,74,-99.99,,,0.00,,2013-01-07 23:12:00,
2013-01-07 16:22:00,29.0,22.0,-100.00,West,260,5.0,12.0,74,-99.99,,,0.00,,2013-01-07 23:22:00,
2013-01-07 16:32:00,29.0,22.0,-100.00,West,260,5.0,12.0,74,-99.99,,,0.00,,2013-01-07 23:32:00,
2013-01-07 16:52:00,29.0,23.0,-100.00,SW,220,19.0,26.0,76,-99.99,,,0.00,,2013-01-07 23:52:00,
2013-01-07 17:00:00,29.0,24.0,-100.00,SW,230,16.0,23.0,80,-99.99,,,0.00,,2013-01-08 00:00:00,
2013-01-07 17:02:00,29.0,23.0,-100.00,SW,220,19.0,26.0,76,-99.99,,,0.00,,2013-01-08 00:02:00,
2013-01-07 17:12:00,29.0,23.0,-100.00,SSW,210,18.0,24.0,78,-99.99,,,0.00,,2013-01-08 00:12:00,
2013-01-07 17:22:00,29.0,23.0,-100.00,SSW,210,18.0,24.0,78,-99.99,,,0.00,,2013-01-08 00:22:00,
2013-01-07 17:32:00,29.0,24.0,-100.00,SW,230,16.0,23.0,80,-99.99,,,0.00,,2013-01-08 00:32:00,
2013-01-07 17:42:00,29.0,24.0,-100.00,SW,230,16.0,23.0,80,-99.99,,,0.00,,2013-01-08 00:42:00,
2013-01-07 17:52:00,29.0,24.0,-100.00,SW,230,16.0,23.0,80,-99.99,,,0.00,,2013-01-08 00:52:00,
2013-01-07 18:12:00,30.0,23.0,-100.00,SW,225,13.0,19.0,76,-99.99,,,0.00,,2013-01-08 01:12:00,
2013-01-07 18:22:00,30.0,23.0,-100.00,SW,225,13.0,19.0,76,-99.99,,,0.00,,2013-01-08 01:22:00,
2013-01-07 18:32:00,29.0,24.0,-100.00,SW,225,11.0,16.0,79,-99.99,,,0.00,,2013-01-08 01:32:00,
2013-01-07 18:42:00,29.0,24.0,-100.00,SW,225,11.0,16.0,79,-99.99,,,0.00,,2013-01-08 01:42:00,
2013-01-07 18:52:00,30.0,24.0,-100.00,SW,220,17.0,21.0,79,-99.99,,,0.00,,2013-01-08 01:52:00,
2013-01-07 19:02:00,30.0,24.0,-100.00,SW,220,17.0,21.0,79,-99.99,,,0.00,,2013-01-08 02:02:00,
2013-01-07 19:12:00,29.0,24.0,-100.00,SSW,210,17.0,22.0,80,-99.99,,,0.00,,2013-01-08 02:12:00,
2013-01-07 19:22:00,29.0,24.0,-100.00,SSW,210,17.0,22.0,80,-99.99,,,0.00,,2013-01-08 02:22:00,
2013-01-07 19:32:00,30.0,24.0,-100.00,SW,220,13.0,19.0,78,-99.99,,,0.00,,2013-01-08 02:32:00,
2013-01-07 19:42:00,30.0,24.0,-100.00,SW,220,13.0,19.0,78,-99.99,,,0.00,,2013-01-08 02:42:00,
2013-01-07 19:53:00,31.0,24.0,-100.00,SW,235,9.0,12.0,76,-99.99,,,0.00,,2013-01-08 02:53:00,
2013-01-07 20:02:00,31.0,24.0,-100.00,SW,235,9.0,12.0,76,-99.99,,,0.00,,2013-01-08 03:02:00,
2013-01-07 20:12:00,31.0,24.0,-100.00,West,260,11.0,14.0,75,-99.99,,,0.00,,2013-01-08 03:12:00,
2013-01-07 20:22:00,31.0,24.0,-100.00,West,260,11.0,14.0,75,-99.99,,,0.00,,2013-01-08 03:22:00,
2013-01-07 20:32:00,31.0,24.0,-100.00,WSW,240,13.0,19.0,73,-99.99,,,-99.99,,2013-01-08 03:32:00,
2013-01-07 20:42:00,31.0,24.0,-100.00,WSW,240,13.0,19.0,73,-99.99,,,-99.99,,2013-01-08 03:42:00,
2013-01-07 20:52:00,31.0,24.0,-100.00,WSW,250,13.0,19.0,74,-99.99,,,0.00,,2013-01-08 03:52:00,
2013-01-07 21:02:00,31.0,24.0,-100.00,WSW,250,13.0,19.0,74,-99.99,,,0.00,,2013-01-08 04:02:00,
2013-01-07 21:12:00,31.0,23.0,-100.00,WSW,245,11.0,19.0,72,-99.99,,,0.00,,2013-01-08 04:12:00,
2013-01-07 21:22:00,31.0,23.0,-100.00,WSW,245,11.0,19.0,72,-99.99,,,0.00,,2013-01-08 04:22:00,
2013-01-07 21:32:00,31.0,23.0,-100.00,WSW,240,11.0,17.0,71,-99.99,,,0.00,,2013-01-08 04:32:00,
2013-01-07 21:42:00,31.0,23.0,-100.00,WSW,240,11.0,17.0,71,-99.99,,,0.00,,2013-01-08 04:42:00,
2013-01-07 21:52:00,31.0,23.0,-100.00,SW,235,12.0,20.0,73,-99.99,,,0.00,,2013-01-08 04:52:00,
2013-01-07 22:03:00,31.0,23.0,-100.00,SW,235,12.0,20.0,73,-99.99,,,0.00,,2013-01-08 05:03:00,
2013-01-07 22:12:00,31.0,24.0,-100.00,SW,235,13.0,21.0,75,-99.99,,,0.00,,2013-01-08 05:12:00,
2013-01-07 22:22:00,31.0,24.0,-100.00,SW,235,13.0,21.0,75,-99.99,,,0.00,,2013-01-08 05:22:00,
2013-01-07 22:33:00,30.0,24.0,-100.00,SW,225,16.0,21.0,76,-99.99,,,-99.99,,2013-01-08 05:33:00,
2013-01-07 22:42:00,30.0,24.0,-100.00,SW,225,16.0,21.0,76,-99.99,,,-99.99,,2013-01-08 05:42:00,
2013-01-07 22:52:00,31.0,23.0,-100.00,SW,230,19.0,26.0,73,-99.99,,,0.00,,2013-01-08 05:52:00,
2013-01-07 23:02:00,31.0,23.0,-100.00,SW,230,19.0,26.0,73,-99.99,,,0.00,,2013-01-08 06:02:00,
2013-01-07 23:12:00,31.0,23.0,-100.00,SW,235,21.0,29.0,73,-99.99,,,0.00,,2013-01-08 06:12:00,
2013-01-07 23:22:00,31.0,23.0,-100.00,SW,235,21.0,29.0,73,-99.99,,,0.00,,2013-01-08 06:22:00,
2013-01-07 23:32:00,31.0,23.0,-100.00,SW,235,21.0,29.0,73,-99.99,,,0.00,,2013-01-08 06:32:00,
2013-01-07 23:52:00,30.0,23.0,-100.00,SW,225,23.0,35.0,75,-99.99,,,0.00,,2013-01-08 06:52:00,